ATLAS 5 CENTAUR DEB, 44673

Orbit data source: Space-Track

ATLAS 5 CENTAUR DEB, 44673 is space debris in HEO originally from a launch on Wed, 17 Oct 2018 UTC launched from the Air Force Eastern Test Range (AFETR). Debris objects in space refer to the collection of defunct objects orbiting the Earth. Examples of debris include non-operational satellites, rocket bodies, and fragments generated from explosions, collisions, or faulty payload assembly.

Loading next visibility...
Identifier
44673, 2018-079AK
Orbit
HEO
Last TLE update
1 day ago
Origin
Manufacturer
ULA Decatur
Mission
Spacecraft
Bus & Motor
Unknown
Mass
Unknown
Launch date (UTC)
2018-10-17 (7 years ago)
Launch vehicle
Unknown
Launch site
Air Force Eastern Test Range (AFETR)
Object type
Payload
Rocket body
Debris
Shape & HBR
Unknown
Radar Cross Section
RCS unknown

Expand to show TLE details & history

TLE from 1 day ago
0 ATLAS 5 CENTAUR DEB
1 44673U 18079AK  25128.06061501 -.00000063  00000-0  00000-0 0  9996
2 44673  12.8534  76.2137 4719825 230.6694  77.0692  1.77547410 42677
Epoch: 2025-05-08T01:27Z
Definitive object data (Epoch: 2025-05-08T01:27:17.136Z)
Latitude
-0.00002°
Longitude
-171.83282°
Altitude
25,566.467 km
Speed
3.335 km/s
True Right ascension
05h 04m 30s
True Declination
0° 00' 00"
Sunlit
Object was in daylight at TLE epoch
Visualization TLE readout
Latitude
7.02553°
Longitude
-139.23606°
Altitude
34,308.938 km
Speed
2.4 km/s
Apparent Right ascension
06h 51m 03s
Apparent Declination
1° 12' 29"
Sunlit
Object is in daylight
Visualization observer readout
Local Sidereal Time
14:55:43
Azimuth
292.146° WNW
Elevation
-22.539°
Doppler factor
1
Orbital elements
Apogee altitude
36,031.022 km
Perigee altitude
8,834.529 km
Semi-major axis
28,810.913 km
Eccentricity
0.4719825
Inclination
12.8534°
RAAN
76.2137°
Arg. of periapsis
230.6694°
True anomaly
129.35395°
Mean anomaly
77.0692°
Eccentric anomaly
103.378°
Mean motion
0.44382 °/min
BSTAR
Unknown
Orbital period
811.14 mins
Loading maneuver chart data...
Loading SW <> Apogee altitude chart data...

ATLAS 5 CENTAUR DEB Visibility forecast

Observer location: undefined°, undefined°

Span
Click to sort rows by Start time (UTC) header in descending order
Start Az.
Max El. time (UTC)
Max El. Az.
Max El.
End time (UTC)
End Az.
728 mins2025-05-09 15:24:49.665Z206.474° SW2025-05-10 00:36:49.665Z130.997° SE36.237°2025-05-10 03:32:49.665Z108.868° ESE
|